This demonstration page uses our WeatherBlox Daily Observations layout. Learn more.

Left ArrowRight Arrow

Hourly Observations for June 6, 2021

Temp ( °F °C ) Dew Point ( °F °C ) Humidity (%) Winds ( mph kmh ) Pressure ( in mb ) Visibility ( mi km ) Precip ( " mm )
12:51 am 00:51 Clear 82 27.8 32 undefined 16 16 NW 10 17 29.71 1006 10 16 N/A
1:51 am 01:51 Clear 79 26.1 32 undefined 18 18 NW 12 19 29.71 1006 10 16 N/A
2:51 am 02:51 Clear 79 26.1 33 0.6 19 19 NW 12 19 29.70 1006 10 16 N/A
3:51 am 03:51 Clear 78 25.6 32 undefined 19 19 NNW 13 20 29.70 1006 10 16 N/A
4:51 am 04:51 Clear 77 25 33 0.6 20 20 NNW 8 13 29.72 1006 10 16 N/A
5:51 am 05:51 Sunny 73 22.8 32 undefined 22 22 SW 3 6 29.75 1007 10 16 N/A
6:51 am 06:51 Sunny 76 24.4 33 0.6 21 21 SSE 5 7 29.76 1008 10 16 N/A
7:51 am 07:51 Sunny 83 28.3 35 1.7 18 18 SSW 3 6 29.76 1008 10 16 N/A
8:51 am 08:51 Sunny 89 31.7 35 1.7 15 15 WNW 14 22 29.75 1008 10 16 N/A
9:51 am 09:51 Sunny 90 32.2 36 2.2 15 15 NW 9 15 29.75 1008 10 16 N/A
10:51 am 10:51 Sunny 92 33.3 35 1.7 13 13 W 12 19 29.74 1007 10 16 N/A
11:51 am 11:51 Sunny 94 34.4 35 1.7 13 13 W 12 19 29.72 1007 10 16 N/A
12:51 pm 12:51 Sunny 97 36.1 34 1.1 11 11 NW 18 30 29.69 1005 10 16 N/A
1:51 pm 13:51 Mostly Sunny 100 37.8 33 0.6 10 10 WNW 15 24 29.65 1004 10 16 N/A
2:51 pm 14:51 Mostly Sunny 101 38.3 30 -1.1 8 8 NW 20 31 29.62 1003 10 16 N/A
3:51 pm 15:51 Mostly Cloudy 101 38.3 28 -2.2 8 8 WNW 17 28 29.60 1002 10 16 N/A
4:51 pm 16:51 Mostly Cloudy 99 37.2 27 -2.8 8 8 WNW 16 26 29.60 1002 10 16 N/A
5:51 pm 17:51 Mostly Cloudy 98 36.7 25 -3.9 7 7 WNW 14 22 29.60 1002 10 16 N/A
6:51 pm 18:51 Partly Cloudy 96 35.6 27 -2.8 8 8 W 18 30 29.60 1003 10 16 N/A
7:51 pm 19:51 Mostly Clear 91 32.8 28 -2.2 10 10 NW 14 22 29.62 1003 10 16 N/A
8:51 pm 20:51 Mostly Clear 87 30.6 29 -1.7 12 12 NW 10 17 29.64 1004 10 16 N/A
9:51 pm 21:51 Clear 84 28.9 29 -1.7 13 13 NW 13 20 29.67 1005 10 16 N/A
10:51 pm 22:51 Clear 82 27.8 25 -3.9 12 12 NW 12 19 29.69 1006 10 16 N/A
11:51 pm 23:51 Clear 81 27.2 22 -5.6 11 11 NW 14 22 29.70 1006 10 16 N/A

Powered by AerisWeather